sat.trackr.live / text

‹ back to catalog

STARLINK-35458

NORAD 65925 · 2025-225R

PAYLOAD ACTIVE UNKNOWN

§ Identity

Operator
Country
US
Launch date
2025-10-08
Launch site
AFWTR
Launch vehicle
Mass (kg)
RCS (m²)

Purposes: comms

External: N2YO · Heavens-Above · Gunter

§ Orbital elements

Epoch: 2026-09-20T22:03:52.335072Z

Period
93.85 min
Inclination
53.1598°
Eccentricity
0.0001345
Mean motion
15.34361803 rev/d
Perigee alt
461.9 km
Apogee alt
463.7 km
Semi-major
6,841.0 km
B*
4.4054e-4
RAAN
335.6635°
Arg perigee
71.9724°
Mean anomaly
288.1425°
Rev number
5,434

§ Raw data

STARLINK-354581 65925U 25225R   26263.91935573  .00014519  00000+0  44054-3 0  99932 65925  53.1598 335.6635 0001345  71.9724 288.1425 15.34361803 54344

JSON: /api/v1/satellites/65925 · /tle

For live sub-satellite position, see the globe view (requires WebGL).

§ Visibility from observer

Set your observer location to see the next 7 days of passes ≥ 10°. The values pass through the URL so the page stays shareable.

No JS? Fill the form by hand. The geolocation button needs JavaScript.